PDA006 LDSP-UKWW

Flight info

Callsign PDA006
Flight time 1h 41m
Altitude 35000
Route REMPI L5 SOMUN N978 MAVIT DCT ROMOL/K0835F350 DCT LURIK DCT TAKET
Aircraft A321/M-SDE3FGHIJ4RWY/LB1

Departure

Time 2026-05-05 13:28
Airport Split Saint Jerome Airport (LDSP)

Arrival

Time 2026-05-05 15:09
Airport Vinnytsia/Gavyryshivka International Airport (UKWW)
Time Latitude Longitude Altitude Speed Heading
2026-05-05 12:57 43.53728 16.29868 68 ft 0 kts 115°
2026-05-05 13:22 43.53727 16.29870 68 ft 1 kts 111°
2026-05-05 13:23 43.53730 16.29875 68 ft 1 kts 68°
2026-05-05 13:23 43.53742 16.29881 58 ft 3 kts
2026-05-05 13:23 43.53775 16.29872 60 ft 7 kts 351°
2026-05-05 13:23 43.53825 16.29910 63 ft 10 kts 53°
2026-05-05 13:24 43.53877 16.30004 62 ft 14 kts 52°
2026-05-05 13:24 43.53956 16.30075 70 ft 13 kts 15°
2026-05-05 13:24 43.54029 16.30106 69 ft 10 kts 21°
2026-05-05 13:24 43.54094 16.30159 74 ft 13 kts 43°
2026-05-05 13:25 43.54160 16.30270 69 ft 17 kts 52°
2026-05-05 13:25 43.54243 16.30420 56 ft 22 kts 52°
2026-05-05 13:25 43.54343 16.30600 53 ft 25 kts 52°
2026-05-05 13:25 43.54444 16.30783 56 ft 24 kts 53°
2026-05-05 13:26 43.54530 16.30938 59 ft 15 kts 52°
2026-05-05 13:26 43.54559 16.31040 54 ft 7 kts 65°
2026-05-05 13:26 43.54582 16.31028 59 ft 4 kts 274°
2026-05-05 13:26 43.54555 16.30981 58 ft 8 kts 229°
2026-05-05 13:27 43.54535 16.30947 59 ft 0 kts 232°
2026-05-05 13:27 43.54534 16.30945 59 ft 2 kts 232°
2026-05-05 13:27 43.54442 16.30779 56 ft 56 kts 232°
2026-05-05 13:27 43.54063 16.30100 64 ft 120 kts 232°
2026-05-05 13:28 43.53437 16.29007 154 ft 164 kts 230°
2026-05-05 13:28 43.52681 16.27735 667 ft 178 kts 228°
2026-05-05 13:28 43.51854 16.26408 1282 ft 187 kts 227°
2026-05-05 13:28 43.50980 16.24976 1592 ft 205 kts 227°
2026-05-05 13:29 43.50019 16.23380 1716 ft 229 kts 227°
2026-05-05 13:29 43.48963 16.21618 1986 ft 250 kts 226°
2026-05-05 13:29 43.47846 16.19742 2650 ft 255 kts 225°
2026-05-05 13:29 43.46728 16.17854 3501 ft 254 kts 226°
2026-05-05 13:30 43.45874 16.15703 4233 ft 266 kts 254°
2026-05-05 13:30 43.45999 16.13132 4892 ft 280 kts 289°
2026-05-05 13:30 43.47120 16.10922 5630 ft 286 kts 313°
2026-05-05 13:30 43.48682 16.09176 6343 ft 292 kts 323°
2026-05-05 13:31 43.50396 16.07639 7035 ft 296 kts 324°
2026-05-05 13:31 43.52142 16.06135 7769 ft 296 kts 324°
2026-05-05 13:31 43.53864 16.04649 8564 ft 297 kts 328°
2026-05-05 13:31 43.55799 16.03584 8900 ft 301 kts 343°
2026-05-05 13:32 43.57869 16.03196 8984 ft 301 kts 358°
2026-05-05 13:32 43.59958 16.03518 8967 ft 304 kts 11°
2026-05-05 13:32 43.62024 16.04153 8966 ft 305 kts 11°
2026-05-05 13:32 43.64091 16.04786 8965 ft 304 kts 11°
2026-05-05 13:33 43.66154 16.05415 8967 ft 303 kts 11°
2026-05-05 13:33 43.68207 16.06082 8967 ft 305 kts 17°
2026-05-05 13:33 43.70077 16.07454 8976 ft 306 kts 40°
2026-05-05 13:33 43.71459 16.09656 8978 ft 304 kts 63°
2026-05-05 13:34 43.72162 16.12407 9503 ft 305 kts 84°
2026-05-05 13:34 43.72296 16.15335 10123 ft 309 kts 90°
2026-05-05 13:34 43.72369 16.18407 10271 ft 331 kts 90°
2026-05-05 13:34 43.72442 16.21681 10405 ft 351 kts 90°
2026-05-05 13:35 43.72518 16.25081 10722 ft 363 kts 90°
2026-05-05 13:35 43.72599 16.28601 10934 ft 366 kts 90°
2026-05-05 13:35 43.72680 16.32125 10966 ft 368 kts 90°
2026-05-05 13:35 43.72757 16.35660 10981 ft 367 kts 90°
2026-05-05 13:36 43.72830 16.39170 10972 ft 363 kts 90°
2026-05-05 13:36 43.72903 16.42659 11162 ft 366 kts 90°
2026-05-05 13:36 43.72977 16.46178 11835 ft 367 kts 90°
2026-05-05 13:36 43.73051 16.49721 12424 ft 371 kts 90°
2026-05-05 13:37 43.73125 16.53300 12994 ft 375 kts 90°
2026-05-05 13:37 43.73197 16.56924 13560 ft 379 kts 90°
2026-05-05 13:37 43.73267 16.60589 14096 ft 383 kts 90°
2026-05-05 13:37 43.73339 16.64288 14630 ft 386 kts 90°
2026-05-05 13:38 43.73409 16.68021 15155 ft 390 kts 90°
2026-05-05 13:38 43.73476 16.71784 15707 ft 392 kts 90°
2026-05-05 13:38 43.73543 16.75561 16291 ft 394 kts 90°
2026-05-05 13:38 43.73748 16.79360 16828 ft 399 kts 81°
2026-05-05 13:39 43.74448 16.83087 17351 ft 404 kts 70°
2026-05-05 13:39 43.75654 16.86613 17873 ft 407 kts 58°
2026-05-05 13:39 43.77177 16.89928 18377 ft 411 kts 57°
2026-05-05 13:39 43.78720 16.93276 18823 ft 414 kts 57°
2026-05-05 13:40 43.80262 16.96648 19301 ft 416 kts 57°
2026-05-05 13:40 43.81812 17.00053 19732 ft 419 kts 57°
2026-05-05 13:40 43.83368 17.03479 20240 ft 421 kts 57°
2026-05-05 13:40 43.84931 17.06926 20696 ft 424 kts 57°
2026-05-05 13:41 43.86502 17.10390 21190 ft 426 kts 57°
2026-05-05 13:41 43.88089 17.13880 21618 ft 429 kts 57°
2026-05-05 13:41 43.89684 17.17390 22071 ft 431 kts 57°
2026-05-05 13:41 43.91264 17.20877 22440 ft 435 kts 57°
2026-05-05 13:42 43.92896 17.24481 22866 ft 437 kts 57°
2026-05-05 13:42 43.94515 17.28067 23270 ft 440 kts 56°
2026-05-05 13:42 43.96143 17.31679 23667 ft 442 kts 57°
2026-05-05 13:42 43.97751 17.35255 23998 ft 444 kts 57°
2026-05-05 13:43 43.99409 17.38949 24327 ft 446 kts 57°
2026-05-05 13:43 44.01034 17.42570 24661 ft 448 kts 56°
2026-05-05 13:43 44.02689 17.46250 24975 ft 450 kts 57°
2026-05-05 13:43 44.04352 17.49949 25317 ft 452 kts 57°
2026-05-05 13:44 44.06022 17.53662 25647 ft 454 kts 57°
2026-05-05 13:44 44.07695 17.57397 25981 ft 456 kts 57°
2026-05-05 13:44 44.09373 17.61157 26276 ft 458 kts 57°
2026-05-05 13:44 44.11051 17.64931 26575 ft 460 kts 58°
2026-05-05 13:45 44.12535 17.68881 26881 ft 463 kts 64°
2026-05-05 13:45 44.13917 17.72937 27212 ft 464 kts 63°
2026-05-05 13:45 44.15299 17.77004 27519 ft 465 kts 64°
2026-05-05 13:45 44.16685 17.81085 27807 ft 467 kts 64°
2026-05-05 13:46 44.18078 17.85185 28093 ft 469 kts 63°
2026-05-05 13:46 44.19477 17.89305 28375 ft 471 kts 63°
2026-05-05 13:46 44.20878 17.93437 28636 ft 473 kts 63°
2026-05-05 13:46 44.22286 17.97595 28909 ft 475 kts 64°
2026-05-05 13:47 44.23700 18.01779 29175 ft 478 kts 64°
2026-05-05 13:47 44.25098 18.05923 29428 ft 480 kts 64°
2026-05-05 13:47 44.26519 18.10144 29692 ft 482 kts 64°
2026-05-05 13:47 44.27944 18.14390 29952 ft 484 kts 64°
2026-05-05 13:48 44.29374 18.18658 30245 ft 485 kts 64°
2026-05-05 13:48 44.30798 18.22913 30584 ft 483 kts 63°
2026-05-05 13:48 44.32216 18.27153 30974 ft 481 kts 63°
2026-05-05 13:48 44.33629 18.31384 31338 ft 479 kts 63°
2026-05-05 13:49 44.35034 18.35602 31652 ft 479 kts 63°
2026-05-05 13:49 44.36440 18.39820 31953 ft 479 kts 63°
2026-05-05 13:49 44.37848 18.44044 32251 ft 479 kts 63°
2026-05-05 13:49 44.39252 18.48262 32547 ft 478 kts 63°
2026-05-05 13:50 44.40651 18.52481 32828 ft 478 kts 63°
2026-05-05 13:50 44.42048 18.56706 33112 ft 478 kts 63°
2026-05-05 13:50 44.43442 18.60931 33414 ft 478 kts 63°
2026-05-05 13:50 44.44831 18.65153 33738 ft 477 kts 63°
2026-05-05 13:51 44.46218 18.69370 34017 ft 477 kts 63°
2026-05-05 13:51 44.47603 18.73587 34263 ft 477 kts 63°
2026-05-05 13:51 44.48988 18.77806 34508 ft 476 kts 63°
2026-05-05 13:51 44.50366 18.82010 34746 ft 475 kts 63°
2026-05-05 13:52 44.51725 18.86166 34916 ft 476 kts 63°
2026-05-05 13:52 44.53100 18.90380 34958 ft 474 kts 63°
2026-05-05 13:52 44.55831 18.98781 34955 ft 473 kts 63°
2026-05-05 13:53 44.58553 19.07152 34951 ft 470 kts 63°
2026-05-05 13:53 44.61228 19.15517 34953 ft 469 kts 64°
2026-05-05 13:54 44.63783 19.23943 34947 ft 469 kts 65°
2026-05-05 13:54 44.66309 19.32399 34953 ft 469 kts 65°
2026-05-05 13:55 44.68850 19.40847 34956 ft 470 kts 65°
2026-05-05 13:55 44.71398 19.49302 34977 ft 469 kts 65°
2026-05-05 13:56 44.73920 19.57693 34974 ft 469 kts 65°
2026-05-05 13:56 44.76466 19.66196 34975 ft 468 kts 65°
2026-05-05 13:57 44.78968 19.74589 34985 ft 468 kts 65°
2026-05-05 13:57 44.81462 19.83030 34989 ft 466 kts 65°
2026-05-05 13:58 44.83903 19.91308 34997 ft 465 kts 65°
2026-05-05 13:58 44.86420 19.99808 35001 ft 464 kts 65°
2026-05-05 13:59 44.90126 20.12399 35000 ft 463 kts 65°
2026-05-05 14:00 44.93395 20.23571 34988 ft 462 kts 65°
2026-05-05 14:00 44.96254 20.33385 34996 ft 462 kts 65°
2026-05-05 14:01 44.98681 20.41782 34992 ft 462 kts 66°
2026-05-05 14:01 45.01102 20.50181 34981 ft 461 kts 65°
2026-05-05 14:02 45.03523 20.58583 34979 ft 461 kts 66°
2026-05-05 14:02 45.05942 20.66991 34979 ft 461 kts 66°
2026-05-05 14:03 45.08340 20.75350 34985 ft 461 kts 66°
2026-05-05 14:03 45.10738 20.83763 34992 ft 460 kts 66°
2026-05-05 14:04 45.13121 20.92159 34991 ft 459 kts 66°
2026-05-05 14:04 45.15109 20.99192 34993 ft 459 kts 66°
2026-05-05 14:05 45.17477 21.07589 34996 ft 459 kts 66°
2026-05-05 14:05 45.19826 21.15932 35000 ft 458 kts 66°
2026-05-05 14:06 45.22182 21.24328 35003 ft 458 kts 66°
2026-05-05 14:06 45.25230 21.32160 35004 ft 452 kts 49°
2026-05-05 14:07 45.29547 21.38578 35001 ft 448 kts 42°
2026-05-05 14:07 45.33983 21.44794 34999 ft 448 kts 42°
2026-05-05 14:08 45.38411 21.51034 34994 ft 448 kts 43°
2026-05-05 14:08 45.42831 21.57277 34990 ft 447 kts 43°
2026-05-05 14:09 45.47251 21.63517 34986 ft 447 kts 43°
2026-05-05 14:09 45.51661 21.69760 35001 ft 447 kts 43°
2026-05-05 14:10 45.56036 21.75981 34999 ft 447 kts 43°
2026-05-05 14:10 45.60440 21.82245 34997 ft 447 kts 43°
2026-05-05 14:11 45.64831 21.88519 34996 ft 446 kts 43°
2026-05-05 14:11 45.69222 21.94791 35000 ft 446 kts 43°
2026-05-05 14:12 45.73612 22.01076 34998 ft 446 kts 43°
2026-05-05 14:12 45.77993 22.07376 35003 ft 446 kts 43°
2026-05-05 14:13 45.82368 22.13675 35000 ft 446 kts 43°
2026-05-05 14:13 45.86736 22.19991 35005 ft 446 kts 43°
2026-05-05 14:14 45.91094 22.26298 35010 ft 444 kts 43°
2026-05-05 14:14 45.95442 22.32600 35003 ft 443 kts 43°
2026-05-05 14:15 45.99770 22.38894 35008 ft 442 kts 43°
2026-05-05 14:15 46.04062 22.45153 34999 ft 441 kts 43°
2026-05-05 14:16 46.08361 22.51445 34995 ft 440 kts 43°
2026-05-05 14:16 46.12660 22.57735 35000 ft 440 kts 43°
2026-05-05 14:17 46.16948 22.64023 35008 ft 440 kts 43°
2026-05-05 14:17 46.21231 22.70318 35005 ft 439 kts 43°
2026-05-05 14:18 46.25509 22.76623 35009 ft 439 kts 43°
2026-05-05 14:18 46.29777 22.82940 35008 ft 439 kts 44°
2026-05-05 14:19 46.34046 22.89274 35010 ft 439 kts 44°
2026-05-05 14:19 46.38315 22.95601 35010 ft 439 kts 44°
2026-05-05 14:20 46.42554 23.01902 35010 ft 439 kts 44°
2026-05-05 14:20 46.46809 23.08249 35013 ft 439 kts 44°
2026-05-05 14:21 46.51056 23.14617 35007 ft 439 kts 44°
2026-05-05 14:21 46.55304 23.20990 35003 ft 439 kts 44°
2026-05-05 14:22 46.59549 23.27362 35009 ft 438 kts 44°
2026-05-05 14:22 46.63786 23.33738 35006 ft 438 kts 44°
2026-05-05 14:23 46.68011 23.40128 35000 ft 438 kts 44°
2026-05-05 14:23 46.72230 23.46518 35016 ft 438 kts 44°
2026-05-05 14:24 46.76450 23.52922 35020 ft 437 kts 44°
2026-05-05 14:24 46.80660 23.59328 35023 ft 437 kts 44°
2026-05-05 14:25 46.84867 23.65746 35021 ft 437 kts 44°
2026-05-05 14:25 46.89067 23.72164 35016 ft 437 kts 44°
2026-05-05 14:26 46.93266 23.78595 35010 ft 437 kts 44°
2026-05-05 14:26 46.97457 23.85037 34998 ft 437 kts 45°
2026-05-05 14:27 47.01647 23.91487 34997 ft 437 kts 45°
2026-05-05 14:27 47.05833 23.97942 34988 ft 437 kts 45°
2026-05-05 14:28 47.10017 24.04411 34975 ft 437 kts 45°
2026-05-05 14:28 47.14192 24.10889 34980 ft 437 kts 45°
2026-05-05 14:29 47.18362 24.17379 34987 ft 437 kts 45°
2026-05-05 14:29 47.22525 24.23879 34986 ft 437 kts 45°
2026-05-05 14:30 47.26666 24.30363 35002 ft 437 kts 45°
2026-05-05 14:30 47.30839 24.36892 34999 ft 438 kts 45°
2026-05-05 14:31 47.35007 24.43428 35004 ft 438 kts 45°
2026-05-05 14:31 47.39174 24.49977 35011 ft 438 kts 45°
2026-05-05 14:32 47.43335 24.56537 35012 ft 438 kts 45°
2026-05-05 14:32 47.47488 24.63117 35011 ft 438 kts 45°
2026-05-05 14:33 47.51638 24.69703 35015 ft 438 kts 45°
2026-05-05 14:33 47.55786 24.76296 35015 ft 437 kts 45°
2026-05-05 14:34 47.59925 24.82899 35013 ft 437 kts 45°
2026-05-05 14:34 47.64064 24.89507 35012 ft 437 kts 45°
2026-05-05 14:35 47.68200 24.96113 35007 ft 437 kts 45°
2026-05-05 14:35 47.72328 25.02749 34997 ft 437 kts 46°
2026-05-05 14:36 47.76387 25.09482 34994 ft 438 kts 48°
2026-05-05 14:36 47.80299 25.16422 34983 ft 438 kts 49°
2026-05-05 14:37 47.84181 25.23403 34984 ft 438 kts 49°
2026-05-05 14:37 47.88096 25.30350 34973 ft 438 kts 48°
2026-05-05 14:38 47.92035 25.37281 34966 ft 438 kts 48°
2026-05-05 14:38 47.95963 25.44221 34963 ft 438 kts 49°
2026-05-05 14:39 47.99874 25.51184 34958 ft 438 kts 49°
2026-05-05 14:39 48.03773 25.58164 34956 ft 438 kts 49°
2026-05-05 14:40 48.07652 25.65103 34949 ft 438 kts 49°
2026-05-05 14:40 48.11550 25.72078 34948 ft 438 kts 49°
2026-05-05 14:41 48.15451 25.79079 34947 ft 437 kts 49°
2026-05-05 14:41 48.19338 25.86087 34946 ft 437 kts 49°
2026-05-05 14:42 48.23224 25.93120 34943 ft 437 kts 49°
2026-05-05 14:42 48.26897 26.00395 34939 ft 439 kts 58°
2026-05-05 14:43 48.30008 26.08300 34947 ft 439 kts 58°
2026-05-05 14:43 48.33112 26.16207 34945 ft 439 kts 58°
2026-05-05 14:44 48.36212 26.24123 34941 ft 439 kts 58°
2026-05-05 14:44 48.39307 26.32034 34942 ft 439 kts 58°
2026-05-05 14:45 48.42378 26.39913 34945 ft 439 kts 58°
2026-05-05 14:45 48.45468 26.47878 34081 ft 446 kts 58°
2026-05-05 14:46 48.47036 26.51923 33319 ft 448 kts 58°
2026-05-05 14:46 48.48600 26.55956 32847 ft 443 kts 58°
2026-05-05 14:46 48.50148 26.59953 32358 ft 439 kts 58°
2026-05-05 14:46 48.51680 26.63915 31852 ft 435 kts 58°
2026-05-05 14:47 48.53194 26.67844 31373 ft 431 kts 58°
2026-05-05 14:47 48.54694 26.71744 30883 ft 428 kts 58°
2026-05-05 14:47 48.56179 26.75613 30396 ft 424 kts 58°
2026-05-05 14:47 48.57653 26.79466 29907 ft 421 kts 58°
2026-05-05 14:48 48.59111 26.83281 29395 ft 416 kts 58°
2026-05-05 14:48 48.60551 26.87050 28929 ft 411 kts 59°
2026-05-05 14:48 48.61968 26.90757 28481 ft 406 kts 59°
2026-05-05 14:48 48.63375 26.94438 28027 ft 401 kts 59°
2026-05-05 14:49 48.64760 26.98065 27596 ft 396 kts 59°
2026-05-05 14:49 48.66111 27.01610 27172 ft 392 kts 59°
2026-05-05 14:49 48.67478 27.05208 26763 ft 388 kts 59°
2026-05-05 14:49 48.68815 27.08733 26331 ft 385 kts 59°
2026-05-05 14:50 48.70123 27.12186 25941 ft 382 kts 59°
2026-05-05 14:50 48.71437 27.15663 25540 ft 379 kts 60°
2026-05-05 14:50 48.72319 27.18001 25274 ft 377 kts 60°
2026-05-05 14:50 48.74034 27.22550 24756 ft 374 kts 60°
2026-05-05 14:51 48.75319 27.25961 24370 ft 371 kts 60°
2026-05-05 14:51 48.76182 27.28257 24105 ft 370 kts 60°
2026-05-05 14:51 48.77451 27.31633 23699 ft 368 kts 60°
2026-05-05 14:51 48.78714 27.34994 23261 ft 366 kts 60°
2026-05-05 14:52 48.79969 27.38332 22842 ft 362 kts 60°
2026-05-05 14:52 48.81204 27.41626 22430 ft 358 kts 60°
2026-05-05 14:52 48.82429 27.44894 22039 ft 354 kts 60°
2026-05-05 14:52 48.83621 27.48081 21636 ft 350 kts 60°
2026-05-05 14:53 48.84831 27.51329 21225 ft 347 kts 60°
2026-05-05 14:53 48.85996 27.54458 20831 ft 344 kts 60°
2026-05-05 14:53 48.87168 27.57608 20421 ft 341 kts 60°
2026-05-05 14:53 48.88328 27.60731 20014 ft 338 kts 60°
2026-05-05 14:54 48.89483 27.63839 19606 ft 336 kts 60°
2026-05-05 14:54 48.90628 27.66914 19202 ft 333 kts 60°
2026-05-05 14:54 48.91766 27.69974 18809 ft 331 kts 60°
2026-05-05 14:54 48.92889 27.73014 18414 ft 329 kts 60°
2026-05-05 14:55 48.94000 27.76026 18082 ft 325 kts 60°
2026-05-05 14:55 48.95102 27.79013 17670 ft 322 kts 59°
2026-05-05 14:55 48.96192 27.81962 17289 ft 319 kts 59°
2026-05-05 14:55 48.97233 27.84926 16904 ft 316 kts 65°
2026-05-05 14:56 48.98121 27.87974 16514 ft 314 kts 65°
2026-05-05 14:56 48.99001 27.90998 16127 ft 312 kts 65°
2026-05-05 14:56 48.99874 27.94004 15733 ft 310 kts 65°
2026-05-05 14:56 49.00744 27.96995 15361 ft 308 kts 64°
2026-05-05 14:57 49.01607 27.99969 14976 ft 306 kts 64°
2026-05-05 14:57 49.02467 28.02932 14608 ft 305 kts 64°
2026-05-05 14:57 49.03322 28.05885 14227 ft 304 kts 64°
2026-05-05 14:57 49.04175 28.08832 13858 ft 303 kts 64°
2026-05-05 14:58 49.05019 28.11763 13458 ft 302 kts 64°
2026-05-05 14:58 49.05851 28.14653 13094 ft 299 kts 64°
2026-05-05 14:58 49.06684 28.17545 12710 ft 297 kts 64°
2026-05-05 14:58 49.07515 28.20420 12344 ft 295 kts 64°
2026-05-05 14:59 49.08335 28.23268 11988 ft 293 kts 64°
2026-05-05 14:59 49.09151 28.26111 11628 ft 291 kts 64°
2026-05-05 14:59 49.09961 28.28938 11272 ft 290 kts 64°
2026-05-05 14:59 49.10766 28.31749 10916 ft 289 kts 64°
2026-05-05 15:00 49.11566 28.34550 10554 ft 287 kts 64°
2026-05-05 15:00 49.12093 28.36403 10325 ft 287 kts 65°
2026-05-05 15:00 49.13145 28.40118 10121 ft 287 kts 64°
2026-05-05 15:00 49.13944 28.42930 9999 ft 289 kts 64°
2026-05-05 15:01 49.14746 28.45776 9587 ft 294 kts 67°
2026-05-05 15:01 49.15194 28.48812 9182 ft 295 kts 85°
2026-05-05 15:01 49.15029 28.51941 8651 ft 301 kts 103°
2026-05-05 15:01 49.14231 28.54863 8027 ft 295 kts 121°
2026-05-05 15:02 49.13189 28.57531 7307 ft 291 kts 122°
2026-05-05 15:02 49.12155 28.60174 6598 ft 289 kts 122°
2026-05-05 15:02 49.11131 28.62799 5882 ft 287 kts 122°
2026-05-05 15:02 49.10117 28.65405 5179 ft 284 kts 122°
2026-05-05 15:03 49.09115 28.67993 4471 ft 282 kts 121°
2026-05-05 15:03 49.08153 28.70497 4282 ft 266 kts 121°
2026-05-05 15:03 49.07239 28.72880 4219 ft 253 kts 121°
2026-05-05 15:03 49.06359 28.75173 4161 ft 249 kts 122°
2026-05-05 15:04 49.05666 28.77508 4123 ft 237 kts 99°
2026-05-05 15:04 49.05894 28.79936 4070 ft 233 kts 60°
2026-05-05 15:04 49.07019 28.81614 4014 ft 228 kts 22°
2026-05-05 15:04 49.08548 28.81928 3972 ft 222 kts 346°
2026-05-05 15:05 49.11035 28.79375 3885 ft 213 kts 316°
2026-05-05 15:05 49.12082 28.77943 3791 ft 193 kts 316°
2026-05-05 15:05 49.13053 28.76623 3579 ft 181 kts 316°
2026-05-05 15:06 49.13972 28.75374 3364 ft 173 kts 315°
2026-05-05 15:06 49.14841 28.74195 3173 ft 165 kts 315°
2026-05-05 15:06 49.15698 28.73029 2948 ft 165 kts 316°
2026-05-05 15:06 49.16551 28.71870 2728 ft 164 kts 317°
2026-05-05 15:07 49.17388 28.70733 2536 ft 156 kts 316°
2026-05-05 15:07 49.18185 28.69649 2329 ft 152 kts 316°
2026-05-05 15:07 49.18969 28.68582 2127 ft 150 kts 316°
2026-05-05 15:07 49.19743 28.67528 1935 ft 149 kts 315°
2026-05-05 15:08 49.20519 28.66471 1742 ft 150 kts 316°
2026-05-05 15:08 49.21298 28.65410 1558 ft 151 kts 316°
2026-05-05 15:08 49.22081 28.64348 1373 ft 150 kts 314°
2026-05-05 15:08 49.22847 28.63284 1146 ft 147 kts 314°
2026-05-05 15:09 49.23604 28.62261 979 ft 138 kts 318°
2026-05-05 15:09 49.24203 28.61448 981 ft 91 kts 317°
2026-05-05 15:09 49.24548 28.60979 970 ft 45 kts 318°
2026-05-05 15:09 49.24647 28.60827 970 ft 7 kts 298°
2026-05-05 15:10 49.24667 28.60819 970 ft 2 kts 66°
2026-05-05 15:10 49.24644 28.60851 971 ft 8 kts 141°
2026-05-05 15:10 49.24579 28.60934 967 ft 16 kts 139°
2026-05-05 15:10 49.24481 28.61010 975 ft 16 kts 196°
2026-05-05 15:11 49.24399 28.60893 978 ft 16 kts 228°
2026-05-05 15:11 49.24328 28.60771 978 ft 13 kts 228°
2026-05-05 15:11 49.24284 28.60697 981 ft 6 kts 226°
2026-05-05 15:11 49.24269 28.60664 974 ft 3 kts 253°
2026-05-05 15:12 49.24278 28.60629 982 ft 4 kts 310°
2026-05-05 15:12 49.24289 28.60615 978 ft 1 kts 319°
2026-05-05 15:12 49.24290 28.60614 978 ft 0 kts 319°